Overview Statistics Trail Chart Weather Telemetry Raw packets
 

This is the latest recevied weather packets stored in our database for station/object KE5QKR. If no packets are shown the sender has not sent any weather packets the latest 10 day(s).

<< 71 72 73 74 75 76 77 >>
Time Temp. Humidity Pressure Rain* Wind** Luminosity Snow
1777473744 26.11° C 83% 1013.8 hPa 0 mm - 271 W/m² -
1777473441 26.67° C 82% 1013.8 hPa 0 mm - 125 W/m² -
1777473136 26.11° C 82% 1013.7 hPa 0 mm - 155 W/m² -
1777472834 26.67° C 82% 1013.7 hPa 0 mm - 137 W/m² -
1777472530 26.67° C 82% 1013.6 hPa 0 mm - 218 W/m² -
1777472227 26.67° C 82% 1013.5 hPa 0 mm - 479 W/m² -
1777471923 26.67° C 83% 1013.4 hPa 0 mm - 139 W/m² -
1777471620 27.22° C 83% 1013.3 hPa 0 mm - 251 W/m² -
1777471316 26.11° C 85% 1013.4 hPa 0 mm - 477 W/m² -
1777471013 26.11° C 86% 1013.5 hPa 0 mm - 392 W/m² -
1777470709 26.11° C 87% 1013.4 hPa 0 mm - 322 W/m² -
1777470406 26.67° C 86% 1013.5 hPa 0 mm - 348 W/m² -
1777470103 25° C 91% 1013.5 hPa 0 mm - 273 W/m² -
1777469798 24.44° C 93% 1013.7 hPa 0 mm - 230 W/m² -
1777469494 24.44° C 96% 1013.9 hPa 0 mm - 232 W/m² -
1777469189 23.89° C 99% 1013.9 hPa 0 mm - 214 W/m² -
1777468888 23.33° C 99% 1013.6 hPa 0 mm - 188 W/m² -
1777468586 23.33° C 99% 1013.6 hPa 0 mm - 163 W/m² -
1777468282 22.78° C 99% 1013.6 hPa 0 mm - 140 W/m² -
1777467979 22.78° C 99% 1013.7 hPa 0 mm - 124 W/m² -
1777467675 22.22° C 99% 1013.6 hPa 0 mm - 108 W/m² -
1777467370 22.22° C 99% 1013.7 hPa 0 mm - 102 W/m² -
1777467066 21.67° C 99% 1013.6 hPa 0 mm - 85 W/m² -
1777466763 21.67° C 99% 1013.8 hPa 0 mm - 86 W/m² -
1777466461 21.11° C 99% 1013.6 hPa 0 mm - 74 W/m² -

* Rain latest hour (hover to see other rain measurements)
** Current wind speed in m/s (hover to see current wind gust speed)